Flag for U.S.A. Weather past 2 weeks in Kailua-Kona, Hawaii, U.S.A.

Now
79 °F

Clear.


Feels Like: 82 °F
Forecast: 73 / 79 °F
Wind: 5 mph from East

Location: Keahole Airport

Current Time: Jul 24, 2014 at 11:40:59 PM

Latest Report: Jul 24, 2014 at 10:53 PM


Visibility: 10 mi

Pressure: 29.98 "Hg

Humidity: 72%

Dew point: 69 °F

Location of Kailua-KonaLocation

Historic Weather in Kailua-Kona — Graph

°F

Kailua-Kona temperature yesterday

Maximum temperature yesterday: 88 °F (at 12:53 PM)
Minimum temperature yesterday: 75 °F (at 3:34 AM)
Average temperature yesterday: 81 °F

Past Weeks' High & Low Weather Summary

 TemperatureHumidityPressure
High88 °F (Jul 23, 12:53 PM)94% (Jul 15, 3:53 AM)30.05 "Hg (Jul 15, 3:53 AM)
Low74 °F (Jul 18, 4:53 AM)55% (Jul 12, 12:53 PM)29.87 "Hg (Jul 20, 2:53 AM)
Average81 °F71%29.96 "Hg
* Reported Jul 9 9:53 PM — Jul 24 9:53 PM, Kailua-Kona, Weather by CustomWeather, © 2014

Note: Actual official high and low records may vary slightly from our data, if they occured in-between our weather recording intervals... More about our weather records

Advertising

Kailua-Kona weather history for previous 24 hours

 ConditionsComfort  
Time TempWeatherWind HumidityBarometerVisibility
9:53 PM
Jul 24
79 °FClear.6 mph72%29.98 "Hg10 mi
8:53 PM80 °FClear.7 mph74%29.97 "Hg10 mi
7:53 PM82 °FPassing clouds.9 mph70%29.96 "Hg10 mi
6:53 PM83 °FOvercast.12 mph68%29.95 "Hg10 mi
5:53 PM84 °FPartly sunny.8 mph67%29.94 "Hg10 mi
4:53 PM84 °FOvercast.10 mph65%29.93 "Hg10 mi
3:53 PM85 °FOvercast.9 mph65%29.94 "Hg10 mi
2:53 PM86 °FScattered clouds.9 mph63%29.95 "Hg10 mi
1:53 PM85 °FScattered clouds.8 mph65%29.96 "Hg10 mi
12:53 PM86 °FScattered clouds.8 mph61%29.98 "Hg10 mi
11:53 AM86 °FPassing clouds.8 mph61%29.98 "Hg10 mi
10:53 AM83 °FPartly sunny.10 mph70%30.00 "Hg10 mi
9:53 AM82 °FScattered clouds.8 mph70%30.01 "Hg10 mi
8:53 AM81 °FScattered clouds.8 mph72%30.01 "Hg10 mi
8:39 AM82 °FScattered clouds.8 mph66%30.01 "Hg10 mi
7:53 AM82 °FSunny.8 mph70%30.00 "Hg10 mi
6:53 AM79 °FPartly sunny.7 mph74%29.99 "Hg10 mi
5:53 AM75 °FPassing clouds.No wind82%29.99 "Hg10 mi
4:53 AM78 °FPassing clouds.5 mph74%29.98 "Hg10 mi
3:53 AM79 °FOvercast.5 mph72%29.97 "Hg10 mi
2:53 AM79 °FMostly cloudy.5 mph74%29.98 "Hg10 mi
1:53 AM77 °FPassing clouds.8 mph74%29.99 "Hg10 mi
12:53 AM78 °FOvercast.No wind74%30.00 "Hg10 mi
11:53 PM
Jul 23
81 °FOvercast.6 mph69%30.01 "Hg10 mi
Weather by CustomWeather, © 2014

See weather overviewHow to use our weather pages